Tracking 31027 objects as of 19-Jul-2025
HD Live streaming from Space Station
objects crossing your sky now

STARLINK-32641

Track STARLINK-32641 now!
10-day predictions
STARLINK-32641 is classified as:


NORAD ID: 62236
Int'l Code: 2024-231U
Perigee: 453.5 km
Apogee: 455.2 km
Inclination: 53.2 °
Period: 93.5 minutes
Semi major axis: 6825 km
RCS: Unknown
Launch date: December 5, 2024
Source: United States (US)
Launch site: AIR FORCE WESTERN TEST RANGE (AFWTR)
Your satellite tracking list
STARLINK-4010
Track 1 satellite(s)




NASA's NSSDC Master Catalog

Two Line Element Set (TLE):
1 62236U 24231U   25199.33118708  .00017471  00000-0  44566-3 0  9996
2 62236  53.1577 221.3438 0001186  84.6951 275.4189 15.39625957 35973
Source of the keplerian elements: AFSPC